{"data":{"norad_id":53282,"epoch":"2026-05-25T04:31:16.896000Z","epoch_age_seconds":65597,"freshness":"FRESH","line1":"1 53282U 22086AS  26145.18839000  .00000042  00000+0  20710-4 0  9994","line2":"2 53282  53.2138 200.7062 0001128  79.2934 280.8185 15.08835229212748","mean_motion":15.08835229,"eccentricity":0.0001128,"inclination_deg":53.2138,"raan_deg":200.7062,"arg_perigee_deg":79.2934,"mean_anomaly_deg":280.8185,"bstar":2.071e-5,"rev_number":21274,"period_min":95.437856455299,"perigee_km":538.97763348802,"apogee_km":540.53831059371,"semimajor_km":6917.8949720409,"source":"CELESTRAK","updated_at":"2026-05-25T13:38:17.389112Z"}}